| time (UTC) | temp F | wind direction | speed MPH | gust MPH | rain 1hr in | rain 24hr in | rain mn in | humidity % | barometer mb |
| 20260502204548 | 44 | 197 | 0.0 | 0.0 | 0.00 | 0.05 | 0.01 | 69 | 1014.0 |
| 20260502203044 | 45 | 230 | 0.0 | 2.0 | 0.00 | 0.05 | 0.01 | 64 | 1014.0 |
| 20260502201540 | 45 | 217 | 0.0 | 3.0 | 0.00 | 0.05 | 0.01 | 65 | 1014.1 |
| 20260502200041 | 45 | 60 | 0.0 | 1.0 | 0.00 | 0.05 | 0.01 | 64 | 1014.2 |
| 20260502194539 | 45 | 1 | 0.0 | 2.0 | 0.00 | 0.05 | 0.01 | 64 | 1014.2 |
| 20260502193039 | 45 | 26 | 0.0 | 7.0 | 0.00 | 0.05 | 0.01 | 63 | 1014.2 |
| 20260502191539 | 46 | 19 | 0.0 | 0.0 | 0.00 | 0.05 | 0.01 | 61 | 1014.2 |
| 20260502190038 | 46 | 220 | 0.0 | 1.0 | 0.00 | 0.05 | 0.01 | 57 | 1014.4 |
| 20260502184537 | 46 | 233 | 0.0 | 6.0 | 0.00 | 0.05 | 0.01 | 58 | 1014.4 |
| 20260502183040 | 46 | 13 | 0.0 | 1.0 | 0.00 | 0.05 | 0.01 | 57 | 1014.2 |
| 20260502181536 | 46 | 174 | 0.0 | 3.0 | 0.00 | 0.05 | 0.01 | 54 | 1014.1 |
| 20260502163034 | 47 | 11 | 0.0 | 9.0 | 0.00 | 0.05 | 0.01 | 46 | 1014.2 |
| 20260502161528 | 47 | 345 | 0.0 | 4.0 | 0.00 | 0.05 | 0.01 | 48 | 1014.2 |
| 20260502151519 | 44 | 89 | 0.0 | 10.0 | 0.00 | 0.05 | 0.01 | 57 | 1014.5 |
| 20260502123057 | 40 | 215 | 0.0 | 1.0 | 0.00 | 0.05 | 0.01 | 79 | 1015.3 |
| 20260502121600 | 39 | 67 | 0.0 | 0.0 | 0.00 | 0.05 | 0.01 | 81 | 1015.3 |
| 20260502120109 | 39 | 174 | 0.0 | 0.0 | 0.00 | 0.05 | 0.01 | 81 | 1015.3 |
| 20260502114557 | 39 | 190 | 0.0 | 0.0 | 0.00 | 0.05 | 0.01 | 82 | 1015.4 |
| 20260502113050 | 39 | 208 | 0.0 | 0.0 | 0.00 | 0.05 | 0.01 | 84 | 1015.2 |
| 20260502111551 | 38 | 191 | 0.0 | 0.0 | 0.00 | 0.05 | 0.01 | 85 | 1015.2 |
| 20260502110048 | 38 | 229 | 0.0 | 0.0 | 0.00 | 0.05 | 0.01 | 87 | 1015.1 |
| 20260502104550 | 37 | 179 | 0.0 | 0.0 | 0.00 | 0.05 | 0.01 | 89 | 1014.9 |
| 20260502103042 | 36 | 174 | 0.0 | 0.0 | 0.00 | 0.05 | 0.01 | 90 | 1014.8 |
| 20260502101544 | 35 | 160 | 0.0 | 0.0 | 0.00 | 0.05 | 0.01 | 90 | 1014.6 |
| 20260502071536 | 40 | 178 | 0.0 | 0.0 | 0.00 | 0.05 | 0.01 | 88 | 1013.1 |
| 20260502070015 | 40 | 350 | 0.0 | 0.0 | 0.00 | 0.05 | 0.01 | 94 | 1013.0 |
| 20260502064514 | 40 | 200 | 0.0 | 0.0 | 0.00 | 0.05 | 0.01 | 94 | 1013.1 |
| 20260502063011 | 40 | 170 | 0.0 | 0.0 | 0.00 | 0.05 | 0.01 | 95 | 1013.1 |
| 20260502061510 | 40 | 176 | 0.0 | 0.0 | 0.00 | 0.05 | 0.01 | 95 | 1013.2 |
| 20260502060009 | 40 | 176 | 0.0 | 0.0 | 0.00 | 0.05 | 0.01 | 95 | 1013.2 |
| 20260502054514 | 40 | 176 | 0.0 | 0.0 | 0.00 | 0.05 | 0.01 | 95 | 1013.2 |
| 20260502053006 | 40 | 176 | 0.0 | 0.0 | 0.00 | 0.05 | 0.01 | 95 | 1013.2 |
| 20260502051508 | 41 | 176 | 0.0 | 0.0 | 0.00 | 0.05 | 0.01 | 95 | 1013.4 |
| 20260502050004 | 41 | 176 | 0.0 | 0.0 | 0.01 | 0.05 | 0.01 | 95 | 1013.4 |
| 20260502044502 | 41 | 176 | 0.0 | 0.0 | 0.01 | 0.05 | 0.01 | 95 | 1013.3 |
| 20260502043110 | 41 | 106 | 0.0 | 0.0 | 0.01 | 0.05 | 0.01 | 95 | 1013.2 |
| 20260502041600 | 41 | 251 | 0.0 | 0.0 | 0.01 | 0.05 | 0.01 | 96 | 1013.2 |
| 20260502040057 | 41 | 231 | 0.0 | 0.0 | 0.00 | 0.04 | 0.00 | 96 | 1013.3 |
| 20260502034557 | 41 | 163 | 0.0 | 0.0 | 0.00 | 0.04 | 0.04 | 96 | 1013.2 |
| 20260502033057 | 41 | 163 | 0.0 | 0.0 | 0.00 | 0.04 | 0.04 | 96 | 1013.1 |
| 20260502031610 | 41 | 163 | 0.0 | 0.0 | 0.00 | 0.04 | 0.04 | 96 | 1013.2 |
| 20260502030056 | 41 | 154 | 0.0 | 0.0 | 0.00 | 0.04 | 0.04 | 96 | 1013.1 |
| 20260502024557 | 41 | 106 | 0.0 | 0.0 | 0.00 | 0.04 | 0.04 | 95 | 1013.2 |
| 20260502023054 | 41 | 106 | 0.0 | 0.0 | 0.00 | 0.04 | 0.04 | 95 | 1013.2 |
| 20260502021556 | 41 | 105 | 0.0 | 0.0 | 0.00 | 0.04 | 0.04 | 95 | 1013.3 |
| 20260502020105 | 41 | 105 | 0.0 | 0.0 | 0.00 | 0.04 | 0.04 | 95 | 1013.3 |
| 20260502014552 | 41 | 105 | 0.0 | 0.0 | 0.00 | 0.04 | 0.04 | 95 | 1013.1 |
| 20260502013054 | 41 | 105 | 0.0 | 0.0 | 0.00 | 0.04 | 0.04 | 94 | 1013.0 |
| 20260502011552 | 42 | 104 | 0.0 | 0.0 | 0.00 | 0.04 | 0.04 | 94 | 1012.9 |
| 20260502010055 | 42 | 105 | 0.0 | 0.0 | 0.00 | 0.04 | 0.04 | 94 | 1012.6 |
| 20260502004550 | 42 | 105 | 0.0 | 0.0 | 0.00 | 0.04 | 0.04 | 94 | 1012.6 |
| 20260502003051 | 42 | 104 | 0.0 | 0.0 | 0.00 | 0.04 | 0.04 | 94 | 1012.4 |
| 20260502001549 | 43 | 104 | 0.0 | 0.0 | 0.00 | 0.04 | 0.04 | 93 | 1012.1 |
| 20260502000048 | 43 | 105 | 0.0 | 0.0 | 0.00 | 0.04 | 0.04 | 93 | 1012.0 |
| 20260501234554 | 43 | 104 | 0.0 | 0.0 | 0.00 | 0.04 | 0.04 | 93 | 1011.9 |
| 20260501233047 | 43 | 105 | 0.0 | 0.0 | 0.00 | 0.04 | 0.04 | 93 | 1011.8 |
| 20260501231556 | 43 | 156 | 0.0 | 0.0 | 0.01 | 0.04 | 0.04 | 92 | 1011.8 |
| 20260501230049 | 43 | 14 | 0.0 | 0.0 | 0.01 | 0.04 | 0.04 | 92 | 1012.0 |
| 20260501224545 | 42 | 8 | 0.0 | 0.0 | 0.02 | 0.04 | 0.04 | 92 | 1012.1 |
| 20260501223044 | 42 | 8 | 0.0 | 0.0 | 0.02 | 0.04 | 0.04 | 91 | 1012.1 |
| 20260501221542 | 42 | 8 | 0.0 | 0.0 | 0.02 | 0.03 | 0.03 | 90 | 1012.2 |
| 20260501220043 | 42 | 8 | 0.0 | 0.0 | 0.02 | 0.03 | 0.03 | 90 | 1012.2 |
| 20260501214555 | 42 | 8 | 0.0 | 0.0 | 0.01 | 0.02 | 0.02 | 88 | 1012.2 |
| 20260501213048 | 42 | 360 | 0.0 | 0.0 | 0.01 | 0.02 | 0.02 | 86 | 1012.1 |
| 20260501211541 | 43 | 75 | 0.0 | 0.0 | 0.01 | 0.01 | 0.01 | 85 | 1012.0 |
| 20260501210040 | 43 | 22 | 0.0 | 0.0 | 0.01 | 0.01 | 0.01 | 84 | 1012.0 |